Regional Weather Roundup
Issued by NWS Huntsville, AL

Home | Current Version | Previous Version | Text Only | Print | Product List | Glossary On
Versions: 1 2 3 4 5 6 7 8 9 10 11 12 13 14 15 16 17 18 19 20 21 22 23 24 25 26 27 28 29 30 31 32 33 34 35 36 37 38 39 40 41
000
ASUS44 KHUN 220110
RWRHUN

WEATHER ROUNDUP FOR THE TENNESSEE VALLEY
NATIONAL WEATHER SERVICE HUNTSVILLE AL
800 PM CDT TUE OCT 21 2014

ALZ001>004-220200-
NORTHWEST ALABAMA

CITY           SKY/WX    TMP DP  RH WIND       PRES   REMARKS
COURTLAND HCN    N/A     57 N/A N/A CALM        N/A
RUSSELLVILLE     N/A     55 N/A N/A MISG        N/A
SHOALS AIRPORT CLEAR     62  48  60 N3        30.06R
SHOALS TVA RES   N/A     59 N/A N/A MISG        N/A
$$

ALZ005>007-016-220200-
NORTH CENTRAL ALABAMA

CITY           SKY/WX    TMP DP  RH WIND       PRES   REMARKS
DECATUR AP     CLEAR     57  48  72 N6        30.04R
HUNTSVILLE AP  CLEAR     60  47  61 NW5       30.04R
HUN NWS/UAH      N/A     64  46  52 NW2         N/A
MERIDIANVILLE  CLEAR     54  46  76 CALM      30.04S
VINEMONT AP    FAIR      54  48  78 CALM      30.06S
$$

ALZ008>010-220200-
NORTHEAST ALABAMA

CITY           SKY/WX    TMP DP  RH WIND       PRES   REMARKS
ALBERTVILLE    CLEAR     59  54  82 NW5       30.03R
FORT PAYNE     CLEAR     52  46  82 CALM      30.03R
SCOTTSBORO AP  CLEAR     55  50  82 CALM      30.04R
SCOTTSBORO HCN   N/A     54 N/A N/A MISG        N/A
VALLEY HEAD      N/A     52 N/A N/A MISG        N/A
$$

TNZ076-096-097-220200-
SOUTHEASTERN MIDDLE TENNESSEE

CITY           SKY/WX    TMP DP  RH WIND       PRES   REMARKS
TULLAHOMA      CLEAR     55  45  67 N7        30.07R
WINCHESTER     CLEAR     50  46  87 CALM      30.06R
$$

...SURROUNDING SITES...

CITY           SKY/WX    TMP DP  RH WIND       PRES   REMARKS
ATLANTA        CLEAR     64  47  53 NW8       30.00R
ANNISTON       CLEAR     59  50  72 CALM      30.02R
BIRMINGHAM     CLEAR     59  49  69 CALM      30.05R
CHATTANOOGA    PTCLDY    58  47  66 N6        30.03R
CORINTH        FAIR      55  50  82 NW3       30.06R
DALTON         CLEAR     55  48  76 CALM      30.02R
GADSDEN        CLEAR     55  48  76 CALM      30.03R
GOLDEN TRNGL   CLEAR     64  50  59 N6        30.01S
HALEYVILLE     FAIR      54  49  83 CALM      30.08R
JACKSON TN     CLEAR     55  50  83 CALM      30.08R
MEMPHIS        CLEAR     63  47  55 CALM      30.08R
NASHVILLE      CLEAR     59  45  59 N13       30.08R
OXFORD MS      FAIR      55  52  88 CALM      30.09R
ROME           CLEAR     57  48  72 NE3       30.01R
SAVANNAH       CLEAR     52  52 100 CALM      30.07R
TUPELO         CLEAR     61  51  70 CALM      30.05R
TUSCALOOSA     CLEAR     65  50  58 N8        30.02R
$$

...GULF COAST WEATHER...

CITY           SKY/WX    TMP DP  RH WIND       PRES   REMARKS
GULFPORT       CLEAR     65  60  84 CALM      29.99R
PASCAGOULA     CLEAR     59  57  93 CALM      30.00R
MOBILE         PTCLDY    60  56  86 CALM      30.01R
GULF SHORES    CLEAR     61  59  94 CALM      29.99R
PENSACOLA      CLEAR     62  56  80 CALM      29.98R
DESTIN         CLEAR     70  60  70 CALM      29.98R
PANAMA CITY    CLEAR     64  58  80 CALM      29.97R
APPALACHICOLA  CLEAR     70  62  76 CALM      29.97R
$$




USA.gov is the U.S. government's official web portal to all federal, state and local government web resources and services.